Location: Trebic
(49.2170°N, 15.8830°E)
Time: 09:53:42
(UTC+02:00)

Transit 4A - Pass Details

Date: 22 July 2019
Orbit: 863 x 981 km, 66.8° (Epoch: 24 August)

Event Time Altitude Azimuth Distance (km) Brightness Sun altitude
Exits shadow 01:38:13 26° 150° (SSE) 1,805 9.0 -20.0°
Maximum altitude 01:40:36 35° 111° (ESE) 1,541 8.9 -19.9°
Drops below altitude 10° 01:46:17 10° 49° (NE) 2,741 11.1 -19.7°
Sets 01:49:04 0° 41° (NE) 3,690 12.1 -19.7°
